SCP
0 0 0 0 0 0 0 0 0 0 0 0 0 0 0 1 1 0 -0 -0 -0 0 -0 0 -0 -1 -0 -0 -0 -0 -0 -0 -0 0 0 0 -0 -0 -0 -0 0 0 -0 -0 0 -0 -0 -0 0
0 0 0 0 0 0 0 0 0 0 -0 -0 -0 0 0 1 0 -0 0 -0 0 0 0 0 -0 -0 -0 -0 -0 -0 -0 -0 -0 0 0 0 0 -0 -0 0 0 0 0 0 0 0 -0 -0 0
0 0 0 0 0 0 0 0 0 0 0 0 0 0 0 0 0 -0 0 0 0 0 0 0 0 0 0 -0 -0 0 0 -0 -0 0 0 0 0 0 0 0 0 0 0 0 0 -0 -0 -0 -0
0 0 0 0 0 0 0 0 0 0 0 0 0 0 0 -0 0 -0 0 0 0 0 0 1 0 0 0 0 0 0 0 0 0 0 0 0 0 0 0 0 0 0 0 0 0 -0 -0 -0 -0
0 0 0 0 -0 0 0 0 0 0 0 0 0 0 0 0 0 0 0 0 0 0 1 1 1 0 0 0 0 0 0 0 0 0 0 0 0 0 0 0 0 0 0 0 0 0 -0 -0 -0
0 0 0 0 0 0 0 0 0 0 0 0 0 0 0 0 0 0 0 0 0 0 0 1 1 1 1 0 0 0 0 0 0 0 0 0 0 0 0 0 0 0 0 0 0 0 -0 -0 -0
0 0 0 0 -0 0 0 0 0 0 0 0 0 0 0 0 0 0 0 1 1 1 1 1 1 1 1 1 1 1 0 0 0 0 0 0 0 0 0 0 0 0 0 0 -0 -0 -0 -0 -0
0 0 0 0 0 0 0 0 0 0 0 0 0 0 0 0 0 0 0 -0 0 1 1 1 1 1 2 1 1 1 1 0 0 0 0 0 0 0 0 0 0 0 0 -0 -0 -0 -0 -0 -0
0 0 0 0 0 0 0 0 0 0 0 0 0 0 0 0 -0 0 0 0 0 1 1 1 1 1 1 2 2 1 1 1 0 0 0 0 0 0 0 0 0 0 0 0 -0 -0 -0 -0 -0
0 0 0 0 0 0 -0 0 0 0 0 0 0 0 0 0 0 0 0 0 0 0 1 1 1 1 2 1 2 2 2 2 1 1 1 0 0 0 0 0 0 0 0 0 -0 -0 -0 -0 -0
0 0 0 0 0 0 -0 0 0 0 0 0 0 0 0 0 0 0 0 0 0 0 1 1 1 1 2 1 2 2 2 2 2 1 1 0 0 0 0 0 0 0 0 0 0 -0 0 0 0
0 0 0 0 0 0 0 0 0 0 0 0 0 0 0 0 0 0 0 0 0 0 -0 0 1 1 1 2 2 2 2 2 2 1 1 0 0 0 0 0 0 0 0 0 0 0 0 0 0
0 0 0 0 0 0 0 0 0 0 0 0 0 0 0 0 0 0 0 0 0 0 -0 -0 0 1 0 1 2 2 2 2 1 1 1 0 0 0 0 0 0 0 0 0 0 0 0 0 0
0 -0 0 -0 0 0 0 0 0 0 0 0 0 0 0 0 0 0 0 0 0 0 0 -0 0 0 0 0 2 2 2 2 1 1 1 0 0 0 0 0 0 0 0 0 0 0 0 0 0
0 0 0 0 0 0 0 0 0 0 0 0 0 0 0 0 0 0 0 0 0 0 0 0 0 0 0 0 2 2 2 2 1 1 0 0 0 0 0 0 0 0 0 0 0 0 0 0 0
0 0 0 0 0 0 0 0 0 0 0 0 0 0 0 0 0 0 0 0 0 0 0 0 0 1 0 0 2 2 1 1 1 1 0 0 0 0 0 0 0 0 0 0 0 0 0 0 0
0 0 0 0 0 0 0 0 0 0 0 -0 0 0 0 0 0 0 0 0 0 0 0 0 0 1 1 1 1 1 1 0 1 0 0 0 0 0 0 0 0 0 0 0 0 0 0 0 0
0 0 0 0 0 0 0 0 0 -0 -0 0 0 0 0 0 0 0 0 0 0 0 0 0 0 0 1 2 2 2 1 0 0 0 0 0 0 0 0 0 0 0 0 0 0 0 0 0 0
0 0 0 0 0 0 -0 -0 -0 -0 0 0 0 0 0 0 0 0 0 0 0 0 0 0 0 0 1 3 3 3 3 1 0 0 0 0 0 0 0 0 0 0 0 0 0 0 0 0 0
0 0 0 0 -0 -0 -0 0 0 -0 0 0 0 0 0 0 0 0 0 0 0 0 0 0 0 0 0 2 3 3 3 3 1 1 1 0 0 0 1 0 0 0 0 0 0 0 0 0 0
0 0 0 0 0 0 0 0 0 0 0 0 0 0 0 0 0 0 0 -0 0 0 0 0 0 0 0 1 2 1 0 0 2 2 1 1 0 0 1 0 0 0 0 0 0 0 0 0 0
0 0 0 0 0 0 0 0 0 0 0 0 0 0 0 0 -0 -0 -0 -0 0 0 0 0 0 0 0 0 1 1 0 0 0 1 1 1 1 1 1 0 0 0 0 1 0 0 0 0 0
0 0 0 0 0 0 0 0 0 0 0 0 -0 0 -0 -0 -0 -0 -0 0 0 0 0 0 0 0 0 0 0 2 1 0 0 0 0 2 2 1 1 0 1 1 1 1 1 0 0 0 0
0 0 0 0 0 0 0 0 0 0 0 0 -0 -0 -0 -0 -0 -0 0 -0 -0 0 0 -0 0 0 0 0 0 1 2 1 1 1 1 2 0 0 0 0 1 1 1 1 0 0 0 0 0
0 0 0 0 0 0 0 0 0 0 0 -0 -0 -0 -0 -0 -0 -0 -0 0 0 0 0 0 -0 -0 0 0 0 0 1 2 2 1 2 2 0 0 0 0 0 1 1 0 0 0 0 0 0
0 0 0 0 0 0 0 0 0 0 0 -0 -0 -0 -0 -0 0 -0 -0 0 0 0 0 0 0 0 0 0 0 0 1 2 3 2 1 1 1 0 0 0 0 0 0 0 0 0 0 0 0
0 0 0 0 0 0 0 0 0 0 -0 -0 -0 -0 -0 -0 -0 -0 0 0 0 0 0 0 0 0 0 0 0 0 1 2 3 2 1 1 1 1 1 0 0 0 0 0 0 0 0 0 0
0 0 0 0 0 0 0 0 0 0 -0 -0 -0 -0 -0 0 -0 -0 0 0 0 0 0 0 0 0 0 0 0 0 2 2 3 3 1 1 1 1 1 0 0 0 0 0 0 0 0 0 0
0 0 0 0 0 0 0 0 0 -0 -0 -0 -0 -0 0 0 -0 -0 0 0 0 0 0 0 0 0 0 0 0 0 1 2 2 3 2 1 1 1 0 0 0 0 0 0 0 0 0 0 0
0 0 0 0 0 0 0 0 0 0 0 -0 -0 0 0 0 0 -0 -0 0 0 0 0 0 0 0 0 0 0 0 1 2 2 2 2 1 1 1 0 0 0 0 0 0 0 0 0 0 0
Wind_Speed_500mb
4 4 4 2 7 9 8 14 6 20 12 20 30 23 18 20 2 8 25 21 30 28 49 54 50 48 48 46 42 44 46 47 44 43 42 39 37 33 31 28 25 24 23 23 22 20 20 21 22
11 5 3 4 9 4 11 11 11 15 21 37 46 37 23 10 27 29 26 31 20 21 39 47 50 47 46 47 44 41 41 43 43 43 43 40 35 31 28 24 24 24 22 21 20 18 18 18 17
11 4 3 7 7 11 10 8 9 29 34 24 11 27 10 9 17 22 19 21 20 19 25 40 43 46 45 46 44 42 39 39 40 41 41 38 35 30 27 25 24 22 21 20 18 16 15 15 16
8 4 1 7 11 15 10 23 33 16 25 44 27 15 17 15 9 21 23 14 18 17 16 39 42 44 47 47 46 44 41 40 39 39 40 38 35 31 26 23 23 22 21 20 18 14 12 13 14
4 3 5 1 14 12 10 25 50 12 4 28 27 11 23 35 34 20 15 13 14 17 10 21 43 43 45 45 46 46 44 41 39 40 41 39 34 29 23 20 20 21 21 18 16 13 10 11 12
4 4 6 5 11 12 15 39 16 6 27 27 21 18 17 36 33 34 21 6 4 6 6 8 32 43 43 44 45 47 46 43 41 40 41 40 36 31 25 21 20 20 19 18 16 13 11 11 12
8 7 7 7 12 14 11 41 21 11 18 21 15 10 22 34 32 24 28 18 3 13 17 16 17 35 41 42 45 47 48 45 42 41 42 41 37 32 28 23 20 21 20 18 16 14 11 14 14
4 7 6 5 9 11 21 19 45 39 13 11 15 5 4 28 23 22 22 21 12 9 28 28 24 18 36 46 47 48 50 50 46 43 43 43 40 35 31 28 25 24 22 20 18 15 13 17 21
15 7 4 8 8 6 16 18 31 24 36 23 21 15 20 20 20 15 9 15 14 16 17 34 31 24 28 45 51 53 55 54 51 48 46 46 46 42 37 32 28 27 25 22 20 17 14 19 22
8 8 13 14 4 7 3 15 26 17 23 19 37 29 27 26 24 18 13 7 22 13 17 42 40 34 33 32 54 58 59 62 60 56 52 50 47 43 37 34 32 30 28 25 22 18 17 20 20
7 12 12 25 27 9 9 12 15 11 9 23 28 36 40 45 39 33 33 28 28 24 14 20 45 41 41 36 40 64 65 66 66 62 56 52 50 47 43 38 37 35 32 27 24 21 20 25 17
3 12 4 14 29 21 10 23 14 19 31 38 39 37 36 38 38 44 44 34 38 38 32 27 23 55 48 44 39 53 67 67 68 68 61 57 56 53 47 44 40 37 34 28 26 23 27 26 20
5 10 39 50 51 47 29 25 16 39 48 36 32 30 35 39 41 41 45 46 43 41 38 33 25 31 51 45 45 57 65 68 68 67 65 64 60 57 49 46 43 39 35 32 31 31 30 25 17
21 30 37 39 54 50 13 29 18 58 54 48 41 36 39 47 47 42 38 42 43 39 39 36 29 28 34 52 49 49 59 64 65 66 68 67 63 58 53 47 44 37 31 36 33 33 28 27 22
32 14 18 9 15 19 6 16 16 63 62 65 57 46 45 53 53 54 48 43 44 44 32 36 29 30 32 39 51 57 52 56 58 65 64 67 67 64 58 54 44 38 26 33 30 33 30 30 25
10 7 11 16 7 16 15 15 26 41 23 24 39 49 53 53 52 54 55 51 47 47 45 34 35 30 33 39 50 52 60 57 57 56 56 68 70 69 64 61 53 41 36 35 36 33 32 33 37
9 4 7 18 17 6 3 14 13 43 33 34 47 54 46 33 25 18 22 41 52 53 50 49 45 42 43 38 44 51 60 64 63 63 58 58 72 71 70 66 56 44 40 42 35 32 34 34 36
10 6 9 11 14 15 14 16 21 44 28 39 48 51 60 59 57 44 35 29 25 28 54 58 52 52 46 50 42 56 68 69 65 67 65 59 67 71 74 73 59 50 54 45 41 39 36 33 33
14 7 10 13 11 5 9 14 31 46 47 41 49 48 54 66 54 43 44 34 31 21 21 39 61 59 63 57 61 56 68 78 71 75 66 61 58 67 74 76 63 61 65 60 51 45 41 38 34
6 8 11 11 14 11 16 20 14 19 21 38 38 45 58 79 81 76 70 65 48 45 38 34 37 60 68 71 62 63 68 72 81 75 78 68 66 64 69 83 69 69 63 64 56 50 47 46 40
7 5 10 13 15 10 7 10 9 9 28 34 49 54 64 62 76 88 80 76 71 66 60 53 53 48 61 75 72 67 63 72 69 77 80 79 83 74 68 81 84 74 66 69 59 60 52 53 45
5 12 10 19 8 10 7 8 3 2 17 20 38 53 57 69 75 69 78 77 71 65 53 50 52 52 47 65 84 84 82 76 80 67 85 96 80 92 87 80 87 83 72 71 63 62 58 52 47
11 15 11 14 9 6 12 8 7 7 13 14 23 43 52 58 60 81 86 84 78 70 66 67 61 58 52 48 76 94 92 87 82 77 86 104 94 94 98 98 84 84 76 71 67 60 56 50 45
7 10 12 10 7 6 6 7 8 6 5 12 23 38 52 66 76 88 85 79 80 73 66 71 74 72 67 63 61 89 103 90 89 82 85 92 104 96 90 81 93 82 79 74 70 64 56 52 50
16 14 8 11 10 8 2 7 9 4 3 7 19 49 59 60 69 80 80 86 88 69 64 57 71 83 79 75 73 74 107 98 93 84 91 88 90 91 98 88 91 83 82 75 72 63 54 44 40
5 12 8 4 5 10 15 5 6 10 6 15 26 37 57 63 65 66 73 80 77 73 62 64 65 83 89 76 81 75 93 102 101 90 84 76 87 85 75 116 106 94 83 75 69 64 53 46 41
5 9 7 8 6 5 8 5 9 5 11 31 38 50 58 62 63 67 79 76 73 70 71 71 69 63 63 56 76 71 86 102 99 90 78 75 80 81 75 108 102 85 79 74 71 64 56 46 42
14 5 7 7 3 9 10 10 9 13 17 20 21 37 56 60 65 85 80 80 72 68 72 72 58 48 42 44 61 67 84 104 95 81 81 77 77 75 85 95 79 85 80 77 74 65 58 49 48
7 6 2 7 9 6 6 10 6 4 15 20 21 44 57 59 62 70 76 72 74 66 70 81 60 46 39 49 63 67 75 92 93 81 78 73 76 72 90 97 91 90 82 77 68 62 58 54 46
8 5 5 7 7 7 4 11 3 11 14 25 30 49 60 62 58 55 75 73 76 72 73 79 61 33 36 50 60 74 71 81 103 74 74 72 73 75 93 94 83 89 83 78 77 68 58 52 44
Wind_Direction_500mb
212 161 289 57 53 58 270 266 319 303 305 63 91 87 90 48 78 183 133 129 147 167 172 170 175 176 172 166 163 166 168 168 168 167 165 163 161 158 154 152 148 143 140 135 129 125 125 124 126
180 245 253 72 89 72 270 251 280 272 278 123 105 94 51 71 97 128 123 123 135 148 173 176 178 180 180 175 169 168 170 171 171 171 169 165 163 159 156 154 151 146 146 142 135 133 126 124 129
187 199 142 102 130 187 226 270 295 319 317 350 101 70 78 98 108 133 150 140 151 150 171 181 185 183 184 184 179 173 172 175 176 176 175 171 167 164 163 161 159 154 152 148 143 137 127 123 128
162 158 80 89 248 259 239 283 290 288 280 35 115 81 82 107 89 139 132 134 153 154 164 192 191 192 187 186 187 183 178 177 180 181 183 180 175 174 173 168 164 161 163 159 151 143 130 120 127
99 103 55 61 261 269 281 270 276 235 95 45 77 37 78 101 106 118 110 118 149 154 175 198 200 199 196 191 190 192 187 182 182 187 189 188 185 182 181 178 174 173 173 165 159 154 139 124 127
15 58 53 260 268 299 300 327 315 44 62 37 50 106 86 92 78 55 51 180 173 217 203 194 207 207 205 201 196 196 197 191 187 190 194 195 192 190 190 189 186 183 181 178 171 166 150 130 128
125 88 216 291 276 344 339 5 10 341 40 37 65 90 103 71 18 22 20 39 230 234 242 232 205 216 215 212 207 202 200 200 195 193 196 198 198 195 197 196 194 191 192 189 184 180 163 136 139
216 92 328 277 296 283 335 9 10 14 24 11 45 83 286 340 355 350 345 352 352 309 253 234 229 225 226 222 218 211 206 203 204 201 200 201 202 201 202 202 201 199 198 198 195 188 174 147 129
232 67 251 258 308 283 346 12 360 345 9 358 0 29 358 359 356 347 24 332 354 329 260 232 232 232 223 224 223 220 211 208 206 208 206 205 205 205 206 206 205 205 203 204 200 193 182 164 152
131 132 228 220 273 286 11 26 338 358 355 342 332 301 325 336 338 341 331 320 4 8 263 219 229 253 233 233 227 222 217 211 209 209 211 210 210 212 213 212 211 210 209 208 203 195 189 174 173
235 196 214 275 287 287 322 334 309 306 298 298 298 306 311 313 317 312 308 302 301 317 331 277 246 238 250 246 234 225 219 215 212 211 212 215 214 214 216 217 216 215 215 214 206 197 190 183 173
303 265 267 287 327 320 308 308 302 261 279 291 289 292 293 297 302 301 296 294 288 300 306 293 291 240 241 246 243 237 221 218 216 214 212 214 217 218 218 221 220 220 219 218 208 199 181 183 195
81 323 326 324 315 312 308 289 272 285 285 283 286 293 289 283 281 278 287 286 293 291 291 299 287 259 244 239 242 233 228 225 222 219 218 217 219 221 221 225 223 223 222 216 206 187 185 180 181
313 315 314 310 304 296 263 290 333 286 279 286 287 278 271 267 263 269 273 277 273 281 280 285 276 263 253 258 259 249 237 231 226 225 223 222 222 223 226 226 221 216 218 209 207 199 202 198 208
310 330 310 310 287 288 54 317 253 277 277 269 267 263 261 258 257 252 259 269 266 270 277 284 270 259 242 252 256 260 249 241 233 231 229 227 225 225 226 226 217 209 197 190 187 194 194 206 210
324 24 343 299 290 282 130 259 275 303 317 306 287 291 276 260 258 254 253 257 260 262 264 259 264 245 246 236 257 254 252 245 242 237 236 231 228 226 227 225 219 211 205 210 215 221 230 222 208
350 252 241 310 296 328 70 276 280 326 345 23 51 58 56 42 38 14 320 280 261 256 259 250 249 259 253 239 244 256 246 243 242 247 240 238 230 227 226 224 221 216 218 221 223 211 200 205 220
261 260 259 252 294 354 340 309 309 338 57 68 55 37 34 24 16 14 12 17 24 306 259 248 253 246 255 251 238 244 248 241 243 243 243 240 233 228 223 218 219 219 224 224 213 208 221 225 222
231 249 286 285 296 327 288 305 5 54 51 49 48 36 15 4 357 355 348 335 333 332 336 280 255 251 243 246 245 237 240 245 237 236 241 235 230 226 221 216 215 219 224 221 221 225 228 224 221
328 313 311 289 309 341 332 318 99 76 63 59 38 18 3 356 350 345 336 328 307 299 294 294 290 261 250 243 252 252 239 241 246 240 235 237 233 229 224 216 216 217 221 221 220 222 216 224 229
353 290 281 273 301 293 298 310 180 74 58 39 26 10 1 351 345 343 337 325 312 297 287 276 272 276 261 248 247 249 245 241 241 237 233 231 237 231 227 222 222 220 221 215 216 223 221 227 233
348 268 299 304 316 275 110 270 10 105 48 28 9 359 348 341 339 334 333 328 322 305 296 287 271 271 272 251 244 244 246 246 249 240 236 245 236 231 229 225 223 221 220 218 218 223 227 231 232
231 279 290 262 267 62 340 75 249 12 10 357 347 341 341 337 333 332 332 330 322 310 291 287 290 274 267 272 248 246 244 249 253 248 231 235 229 230 223 224 223 218 219 218 220 224 226 226 226
302 7 6 13 48 38 216 107 314 12 339 333 315 328 340 342 337 338 335 333 322 316 303 284 285 282 275 272 263 249 244 242 242 240 237 232 231 226 223 227 226 218 216 218 219 224 224 228 229
52 51 357 2 4 238 275 34 245 247 308 287 310 333 336 337 331 331 333 333 326 323 319 302 284 283 280 273 256 249 243 241 244 240 241 232 239 233 233 230 237 216 209 213 217 216 218 214 219
289 123 138 270 292 288 320 178 211 195 239 289 314 333 341 336 327 333 335 331 326 326 321 315 295 281 276 272 251 246 239 237 242 241 242 238 239 233 219 223 230 204 201 207 212 213 213 210 213
324 47 148 101 31 34 277 339 288 165 343 343 337 342 334 329 331 340 340 339 333 333 326 322 313 292 270 260 243 237 235 232 239 241 237 235 233 238 217 221 214 202 201 207 207 208 210 208 213
95 189 26 26 25 301 309 299 248 352 312 312 319 330 331 325 335 350 344 344 342 342 343 337 325 291 280 262 232 233 227 232 237 243 237 229 232 235 228 207 206 200 200 202 204 204 204 206 202
16 7 28 127 138 195 286 260 183 294 295 313 308 335 332 326 338 347 341 339 331 334 345 347 333 328 286 266 238 233 226 229 235 236 236 228 229 230 220 208 205 200 197 194 197 203 199 196 196
156 252 174 126 248 231 213 271 281 266 298 316 322 334 336 335 333 335 348 343 339 338 339 345 338 315 322 289 252 234 225 220 230 234 236 226 229 225 214 209 205 201 195 197 207 198 188 192 188
Wind_Speed_850mb
4 4 4 2 7 9 8 14 6 20 12 20 30 23 18 20 2 8 25 21 30 28 49 54 50 48 48 46 42 44 46 47 44 43 42 39 37 33 31 28 25 24 23 23 22 20 20 21 22
11 5 3 4 9 4 11 11 11 15 21 37 46 37 23 10 27 29 26 31 20 21 39 47 50 47 46 47 44 41 41 43 43 43 43 40 35 31 28 24 24 24 22 21 20 18 18 18 17
11 4 3 7 7 11 10 8 9 29 34 24 11 27 10 9 17 22 19 21 20 19 25 40 43 46 45 46 44 42 39 39 40 41 41 38 35 30 27 25 24 22 21 20 18 16 15 15 16
8 4 1 7 11 15 10 23 33 16 25 44 27 15 17 15 9 21 23 14 18 17 16 39 42 44 47 47 46 44 41 40 39 39 40 38 35 31 26 23 23 22 21 20 18 14 12 13 14
4 3 5 1 14 12 10 25 50 12 4 28 27 11 23 35 34 20 15 13 14 17 10 21 43 43 45 45 46 46 44 41 39 40 41 39 34 29 23 20 20 21 21 18 16 13 10 11 12
4 4 6 5 11 12 15 39 16 6 27 27 21 18 17 36 33 34 21 6 4 6 6 8 32 43 43 44 45 47 46 43 41 40 41 40 36 31 25 21 20 20 19 18 16 13 11 11 12
8 7 7 7 12 14 11 41 21 11 18 21 15 10 22 34 32 24 28 18 3 13 17 16 17 35 41 42 45 47 48 45 42 41 42 41 37 32 28 23 20 21 20 18 16 14 11 14 14
4 7 6 5 9 11 21 19 45 39 13 11 15 5 4 28 23 22 22 21 12 9 28 28 24 18 36 46 47 48 50 50 46 43 43 43 40 35 31 28 25 24 22 20 18 15 13 17 21
15 7 4 8 8 6 16 18 31 24 36 23 21 15 20 20 20 15 9 15 14 16 17 34 31 24 28 45 51 53 55 54 51 48 46 46 46 42 37 32 28 27 25 22 20 17 14 19 22
8 8 13 14 4 7 3 15 26 17 23 19 37 29 27 26 24 18 13 7 22 13 17 42 40 34 33 32 54 58 59 62 60 56 52 50 47 43 37 34 32 30 28 25 22 18 17 20 20
7 12 12 25 27 9 9 12 15 11 9 23 28 36 40 45 39 33 33 28 28 24 14 20 45 41 41 36 40 64 65 66 66 62 56 52 50 47 43 38 37 35 32 27 24 21 20 25 17
3 12 4 14 29 21 10 23 14 19 31 38 39 37 36 38 38 44 44 34 38 38 32 27 23 55 48 44 39 53 67 67 68 68 61 57 56 53 47 44 40 37 34 28 26 23 27 26 20
5 10 39 50 51 47 29 25 16 39 48 36 32 30 35 39 41 41 45 46 43 41 38 33 25 31 51 45 45 57 65 68 68 67 65 64 60 57 49 46 43 39 35 32 31 31 30 25 17
21 30 37 39 54 50 13 29 18 58 54 48 41 36 39 47 47 42 38 42 43 39 39 36 29 28 34 52 49 49 59 64 65 66 68 67 63 58 53 47 44 37 31 36 33 33 28 27 22
32 14 18 9 15 19 6 16 16 63 62 65 57 46 45 53 53 54 48 43 44 44 32 36 29 30 32 39 51 57 52 56 58 65 64 67 67 64 58 54 44 38 26 33 30 33 30 30 25
10 7 11 16 7 16 15 15 26 41 23 24 39 49 53 53 52 54 55 51 47 47 45 34 35 30 33 39 50 52 60 57 57 56 56 68 70 69 64 61 53 41 36 35 36 33 32 33 37
9 4 7 18 17 6 3 14 13 43 33 34 47 54 46 33 25 18 22 41 52 53 50 49 45 42 43 38 44 51 60 64 63 63 58 58 72 71 70 66 56 44 40 42 35 32 34 34 36
10 6 9 11 14 15 14 16 21 44 28 39 48 51 60 59 57 44 35 29 25 28 54 58 52 52 46 50 42 56 68 69 65 67 65 59 67 71 74 73 59 50 54 45 41 39 36 33 33
14 7 10 13 11 5 9 14 31 46 47 41 49 48 54 66 54 43 44 34 31 21 21 39 61 59 63 57 61 56 68 78 71 75 66 61 58 67 74 76 63 61 65 60 51 45 41 38 34
6 8 11 11 14 11 16 20 14 19 21 38 38 45 58 79 81 76 70 65 48 45 38 34 37 60 68 71 62 63 68 72 81 75 78 68 66 64 69 83 69 69 63 64 56 50 47 46 40
7 5 10 13 15 10 7 10 9 9 28 34 49 54 64 62 76 88 80 76 71 66 60 53 53 48 61 75 72 67 63 72 69 77 80 79 83 74 68 81 84 74 66 69 59 60 52 53 45
5 12 10 19 8 10 7 8 3 2 17 20 38 53 57 69 75 69 78 77 71 65 53 50 52 52 47 65 84 84 82 76 80 67 85 96 80 92 87 80 87 83 72 71 63 62 58 52 47
11 15 11 14 9 6 12 8 7 7 13 14 23 43 52 58 60 81 86 84 78 70 66 67 61 58 52 48 76 94 92 87 82 77 86 104 94 94 98 98 84 84 76 71 67 60 56 50 45
7 10 12 10 7 6 6 7 8 6 5 12 23 38 52 66 76 88 85 79 80 73 66 71 74 72 67 63 61 89 103 90 89 82 85 92 104 96 90 81 93 82 79 74 70 64 56 52 50
16 14 8 11 10 8 2 7 9 4 3 7 19 49 59 60 69 80 80 86 88 69 64 57 71 83 79 75 73 74 107 98 93 84 91 88 90 91 98 88 91 83 82 75 72 63 54 44 40
5 12 8 4 5 10 15 5 6 10 6 15 26 37 57 63 65 66 73 80 77 73 62 64 65 83 89 76 81 75 93 102 101 90 84 76 87 85 75 116 106 94 83 75 69 64 53 46 41
5 9 7 8 6 5 8 5 9 5 11 31 38 50 58 62 63 67 79 76 73 70 71 71 69 63 63 56 76 71 86 102 99 90 78 75 80 81 75 108 102 85 79 74 71 64 56 46 42
14 5 7 7 3 9 10 10 9 13 17 20 21 37 56 60 65 85 80 80 72 68 72 72 58 48 42 44 61 67 84 104 95 81 81 77 77 75 85 95 79 85 80 77 74 65 58 49 48
7 6 2 7 9 6 6 10 6 4 15 20 21 44 57 59 62 70 76 72 74 66 70 81 60 46 39 49 63 67 75 92 93 81 78 73 76 72 90 97 91 90 82 77 68 62 58 54 46
8 5 5 7 7 7 4 11 3 11 14 25 30 49 60 62 58 55 75 73 76 72 73 79 61 33 36 50 60 74 71 81 103 74 74 72 73 75 93 94 83 89 83 78 77 68 58 52 44
Wind_Direction_850mb
212 161 289 57 53 58 270 266 319 303 305 63 91 87 90 48 78 183 133 129 147 167 172 170 175 176 172 166 163 166 168 168 168 167 165 163 161 158 154 152 148 143 140 135 129 125 125 124 126
180 245 253 72 89 72 270 251 280 272 278 123 105 94 51 71 97 128 123 123 135 148 173 176 178 180 180 175 169 168 170 171 171 171 169 165 163 159 156 154 151 146 146 142 135 133 126 124 129
187 199 142 102 130 187 226 270 295 319 317 350 101 70 78 98 108 133 150 140 151 150 171 181 185 183 184 184 179 173 172 175 176 176 175 171 167 164 163 161 159 154 152 148 143 137 127 123 128
162 158 80 89 248 259 239 283 290 288 280 35 115 81 82 107 89 139 132 134 153 154 164 192 191 192 187 186 187 183 178 177 180 181 183 180 175 174 173 168 164 161 163 159 151 143 130 120 127
99 103 55 61 261 269 281 270 276 235 95 45 77 37 78 101 106 118 110 118 149 154 175 198 200 199 196 191 190 192 187 182 182 187 189 188 185 182 181 178 174 173 173 165 159 154 139 124 127
15 58 53 260 268 299 300 327 315 44 62 37 50 106 86 92 78 55 51 180 173 217 203 194 207 207 205 201 196 196 197 191 187 190 194 195 192 190 190 189 186 183 181 178 171 166 150 130 128
125 88 216 291 276 344 339 5 10 341 40 37 65 90 103 71 18 22 20 39 230 234 242 232 205 216 215 212 207 202 200 200 195 193 196 198 198 195 197 196 194 191 192 189 184 180 163 136 139
216 92 328 277 296 283 335 9 10 14 24 11 45 83 286 340 355 350 345 352 352 309 253 234 229 225 226 222 218 211 206 203 204 201 200 201 202 201 202 202 201 199 198 198 195 188 174 147 129
232 67 251 258 308 283 346 12 360 345 9 358 0 29 358 359 356 347 24 332 354 329 260 232 232 232 223 224 223 220 211 208 206 208 206 205 205 205 206 206 205 205 203 204 200 193 182 164 152
131 132 228 220 273 286 11 26 338 358 355 342 332 301 325 336 338 341 331 320 4 8 263 219 229 253 233 233 227 222 217 211 209 209 211 210 210 212 213 212 211 210 209 208 203 195 189 174 173
235 196 214 275 287 287 322 334 309 306 298 298 298 306 311 313 317 312 308 302 301 317 331 277 246 238 250 246 234 225 219 215 212 211 212 215 214 214 216 217 216 215 215 214 206 197 190 183 173
303 265 267 287 327 320 308 308 302 261 279 291 289 292 293 297 302 301 296 294 288 300 306 293 291 240 241 246 243 237 221 218 216 214 212 214 217 218 218 221 220 220 219 218 208 199 181 183 195
81 323 326 324 315 312 308 289 272 285 285 283 286 293 289 283 281 278 287 286 293 291 291 299 287 259 244 239 242 233 228 225 222 219 218 217 219 221 221 225 223 223 222 216 206 187 185 180 181
313 315 314 310 304 296 263 290 333 286 279 286 287 278 271 267 263 269 273 277 273 281 280 285 276 263 253 258 259 249 237 231 226 225 223 222 222 223 226 226 221 216 218 209 207 199 202 198 208
310 330 310 310 287 288 54 317 253 277 277 269 267 263 261 258 257 252 259 269 266 270 277 284 270 259 242 252 256 260 249 241 233 231 229 227 225 225 226 226 217 209 197 190 187 194 194 206 210
324 24 343 299 290 282 130 259 275 303 317 306 287 291 276 260 258 254 253 257 260 262 264 259 264 245 246 236 257 254 252 245 242 237 236 231 228 226 227 225 219 211 205 210 215 221 230 222 208
350 252 241 310 296 328 70 276 280 326 345 23 51 58 56 42 38 14 320 280 261 256 259 250 249 259 253 239 244 256 246 243 242 247 240 238 230 227 226 224 221 216 218 221 223 211 200 205 220
261 260 259 252 294 354 340 309 309 338 57 68 55 37 34 24 16 14 12 17 24 306 259 248 253 246 255 251 238 244 248 241 243 243 243 240 233 228 223 218 219 219 224 224 213 208 221 225 222
231 249 286 285 296 327 288 305 5 54 51 49 48 36 15 4 357 355 348 335 333 332 336 280 255 251 243 246 245 237 240 245 237 236 241 235 230 226 221 216 215 219 224 221 221 225 228 224 221
328 313 311 289 309 341 332 318 99 76 63 59 38 18 3 356 350 345 336 328 307 299 294 294 290 261 250 243 252 252 239 241 246 240 235 237 233 229 224 216 216 217 221 221 220 222 216 224 229
353 290 281 273 301 293 298 310 180 74 58 39 26 10 1 351 345 343 337 325 312 297 287 276 272 276 261 248 247 249 245 241 241 237 233 231 237 231 227 222 222 220 221 215 216 223 221 227 233
348 268 299 304 316 275 110 270 10 105 48 28 9 359 348 341 339 334 333 328 322 305 296 287 271 271 272 251 244 244 246 246 249 240 236 245 236 231 229 225 223 221 220 218 218 223 227 231 232
231 279 290 262 267 62 340 75 249 12 10 357 347 341 341 337 333 332 332 330 322 310 291 287 290 274 267 272 248 246 244 249 253 248 231 235 229 230 223 224 223 218 219 218 220 224 226 226 226
302 7 6 13 48 38 216 107 314 12 339 333 315 328 340 342 337 338 335 333 322 316 303 284 285 282 275 272 263 249 244 242 242 240 237 232 231 226 223 227 226 218 216 218 219 224 224 228 229
52 51 357 2 4 238 275 34 245 247 308 287 310 333 336 337 331 331 333 333 326 323 319 302 284 283 280 273 256 249 243 241 244 240 241 232 239 233 233 230 237 216 209 213 217 216 218 214 219
289 123 138 270 292 288 320 178 211 195 239 289 314 333 341 336 327 333 335 331 326 326 321 315 295 281 276 272 251 246 239 237 242 241 242 238 239 233 219 223 230 204 201 207 212 213 213 210 213
324 47 148 101 31 34 277 339 288 165 343 343 337 342 334 329 331 340 340 339 333 333 326 322 313 292 270 260 243 237 235 232 239 241 237 235 233 238 217 221 214 202 201 207 207 208 210 208 213
95 189 26 26 25 301 309 299 248 352 312 312 319 330 331 325 335 350 344 344 342 342 343 337 325 291 280 262 232 233 227 232 237 243 237 229 232 235 228 207 206 200 200 202 204 204 204 206 202
16 7 28 127 138 195 286 260 183 294 295 313 308 335 332 326 338 347 341 339 331 334 345 347 333 328 286 266 238 233 226 229 235 236 236 228 229 230 220 208 205 200 197 194 197 203 199 196 196
156 252 174 126 248 231 213 271 281 266 298 316 322 334 336 335 333 335 348 343 339 338 339 345 338 315 322 289 252 234 225 220 230 234 236 226 229 225 214 209 205 201 195 197 207 198 188 192 188